sat.trackr.live / text

‹ back to catalog

STARLINK-33979

NORAD 63867 · 2025-094D

PAYLOAD ACTIVE UNKNOWN

§ Identity

Operator
Country
US
Launch date
2025-05-10
Launch site
AFWTR
Launch vehicle
Mass (kg)
RCS (m²)

Purposes: comms

External: N2YO · Heavens-Above · Gunter

§ Orbital elements

Epoch: 2026-09-19T12:47:13.899264Z

Period
94.14 min
Inclination
69.9994°
Eccentricity
0.0003307
Mean motion
15.29600549 rev/d
Perigee alt
474.7 km
Apogee alt
479.3 km
Semi-major
6,855.1 km
B*
6.4738e-4
RAAN
103.5386°
Arg perigee
266.4412°
Mean anomaly
93.6385°
Rev number
7,629

§ Raw data

STARLINK-339791 63867U 25094D   26262.53279976  .00018540  00000+0  64738-3 0  99942 63867  69.9994 103.5386 0003307 266.4412  93.6385 15.29600549 76291

JSON: /api/v1/satellites/63867 · /tle

For live sub-satellite position, see the globe view (requires WebGL).

§ Visibility from observer

Set your observer location to see the next 7 days of passes ≥ 10°. The values pass through the URL so the page stays shareable.

No JS? Fill the form by hand. The geolocation button needs JavaScript.